Wells Aircraft, Inc. Hutchinson Municipal
(888) 496-5545
800 Airport Road
Hutchinson, KS 67501
(change)
Av Fuel Aviation Fuel Jet A: $4.73
100LL: $4.80
Prices current
Mar 27, 2019

Location

Wells Aircraft is located on the south end of the Hutchinson Municipal Airport (KHUT), in Hutchinson, Kansas.

Wells Aircraft, Inc.
800 Airport Road
Hutchinson, KS 67501
Map
Wells Location at KHUT

Quick Links


AirNav Information
(KHUT)

Hutchinson Weather

Hutchinson (KHUT)
Airport Diagram

Additional Resources

They say, "if you don't like the weather in Kansas, wait five minutes and it'll change." Be prepared with these aviation resources.

KHUT 192052Z 34011G21KT 10SM CLR 18/M02 A3005 RMK AO2 SLP166 T01831022 56020                KHUT 192052Z 34011G21KT 10SM CLR 18/M02 A3005 RMK AO2 SLP166 T01831022 56020                KHUT 192052Z 34011G21KT 10SM CLR 18/M02 A3005 RMK AO2 SLP166 T01831022 56020                KHUT 192052Z 34011G21KT 10SM CLR 18/M02 A3005 RMK AO2 SLP166 T01831022 56020                KHUT 192052Z 34011G21KT 10SM CLR 18/M02 A3005 RMK AO2 SLP166 T01831022 56020                KHUT 192052Z 34011G21KT 10SM CLR 18/M02 A3005 RMK AO2 SLP166 T01831022 56020                
 
 
Cirrus Aircraft